Location: Newark
(0.5300°S, 127.4800°E)
Time: 05:03:25
(UTC+00:00)

Vanguard 3 - Pass Details

Date: 22 September 2019
Orbit: 508 x 3262 km, 33.3° (Epoch: 15 October)

Event Time Altitude Azimuth Distance (km) Brightness Sun altitude
Rises 07:13:49 0° 306° (NW) 6,866 12.6 32.3°
Reaches altitude 10° 07:18:53 10° 306° (NW) 5,554 12.3 31.0°
Maximum altitude 07:34:25 89° 217° (SW) 1,842 9.4 27.1°
Drops below altitude 10° 07:42:53 10° 126° (SE) 3,223 9.8 25.0°
Sets 07:45:05 0° 126° (SE) 3,925 10.2 24.5°
